Stündliche Wetter Bad Ischl

Heute, 20 Juni, Sonntag

Zeit Temperatur Niederschläge Wind Luftdruck Luftfeuchtigkeit
00:00 +20°C° 0 mm 2 m/S 713 mmHg 80%
01:00 +20°C° 0 mm 2 m/S 713 mmHg 81%
02:00 +19°C° 0 mm 2 m/S 712 mmHg 81%
03:00 +19°C° 0 mm 2 m/S 712 mmHg 80%
04:00 +19°C° 0 mm 2 m/S 712 mmHg 80%
05:00 +22°C° 0 mm 1 m/S 712 mmHg 75%
06:00 +24°C° 0 mm 1 m/S 712 mmHg 70%
07:00 +25°C° 0 mm 1 m/S 712 mmHg 65%
08:00 +27°C° 0 mm 1 m/S 713 mmHg 60%
09:00 +29°C° 0 mm 1 m/S 713 mmHg 54%
10:00 +30°C° 0 mm 2 m/S 713 mmHg 49%
11:00 +31°C° 0 mm 2 m/S 713 mmHg 47%
12:00 +32°C° 0 mm 2 m/S 712 mmHg 46%
13:00 +32°C° 0 mm 2 m/S 712 mmHg 44%
14:00 +32°C° 0 mm 2 m/S 712 mmHg 47%
15:00 +31°C° 0 mm 2 m/S 711 mmHg 49%
16:00 +31°C° 0 mm 2 m/S 711 mmHg 51%
17:00 +29°C° 0.3 mm 2 m/S 710 mmHg 61%
18:00 +27°C° 0.3 mm 2 m/S 710 mmHg 71%
19:00 +24°C° 0.3 mm 3 m/S 709 mmHg 81%
20:00 +23°C° 0 mm 2 m/S 709 mmHg 81%
21:00 +23°C° 0 mm 2 m/S 709 mmHg 82%
22:00 +21°C° 0 mm 2 m/S 709 mmHg 82%
23:00 +21°C° 0 mm 2 m/S 708 mmHg 82%

Morgen, 21 Juni, Montag

Zeit Temperatur Niederschläge Wind Luftdruck Luftfeuchtigkeit
00:00 +20°C° 0 mm 2 m/S 708 mmHg 82%
01:00 +20°C° 0 mm 2 m/S 708 mmHg 81%
02:00 +19°C° 0 mm 2 m/S 708 mmHg 85%
03:00 +19°C° 0 mm 2 m/S 709 mmHg 89%
04:00 +18°C° 0 mm 2 m/S 709 mmHg 93%
05:00 +19°C° 0 mm 2 m/S 710 mmHg 89%
06:00 +20°C° 0 mm 2 m/S 710 mmHg 86%
07:00 +22°C° 0 mm 1 m/S 711 mmHg 82%
08:00 +24°C° 0 mm 2 m/S 711 mmHg 73%
09:00 +26°C° 0 mm 2 m/S 711 mmHg 65%
10:00 +28°C° 0 mm 2 m/S 711 mmHg 56%
11:00 +28°C° 0.1 mm 2 m/S 710 mmHg 54%
12:00 +29°C° 0.1 mm 2 m/S 710 mmHg 52%
13:00 +30°C° 0.1 mm 2 m/S 710 mmHg 49%
14:00 +30°C° 0.2 mm 2 m/S 710 mmHg 52%
15:00 +29°C° 0.2 mm 2 m/S 710 mmHg 55%
16:00 +29°C° 0.2 mm 2 m/S 709 mmHg 57%
17:00 +28°C° 0.3 mm 1 m/S 709 mmHg 66%
18:00 +27°C° 0.3 mm 1 m/S 709 mmHg 74%
19:00 +25°C° 0.3 mm 1 m/S 709 mmHg 83%
20:00 +24°C° 0.3 mm 1 m/S 709 mmHg 86%
21:00 +22°C° 0.3 mm 1 m/S 709 mmHg 89%
22:00 +21°C° 0.3 mm 1 m/S 709 mmHg 92%
23:00 +20°C° 0.3 mm 1 m/S 709 mmHg 93%

übermorgen, 22 Juni, Dienstag

Zeit Temperatur Niederschläge Wind Luftdruck Luftfeuchtigkeit
00:00 +20°C° 0.3 mm 1 m/S 709 mmHg 94%
01:00 +19°C° 0.3 mm 1 m/S 709 mmHg 95%
02:00 +19°C° 0.4 mm 1 m/S 710 mmHg 96%
03:00 +19°C° 0.4 mm 1 m/S 710 mmHg 97%
04:00 +19°C° 0.4 mm 1 m/S 711 mmHg 97%
05:00 +20°C° 0 mm 1 m/S 711 mmHg 96%
06:00 +20°C° 0 mm 1 m/S 711 mmHg 94%
07:00 +19°C° 0 mm 0 m/S 711 mmHg 93%
08:00 +22°C° 0 mm 1 m/S 711 mmHg 87%
09:00 +23°C° 0 mm 1 m/S 711 mmHg 82%
10:00 +24°C° 0 mm 1 m/S 711 mmHg 76%
11:00 +26°C° 0 mm 1 m/S 711 mmHg 70%
12:00 +27°C° 0 mm 2 m/S 711 mmHg 63%
13:00 +29°C° 0 mm 2 m/S 710 mmHg 56%
14:00 +29°C° 0.1 mm 2 m/S 710 mmHg 57%
15:00 +29°C° 0.1 mm 2 m/S 710 mmHg 57%
16:00 +29°C° 0.1 mm 2 m/S 710 mmHg 58%
17:00 +28°C° 0.1 mm 2 m/S 710 mmHg 66%
18:00 +27°C° 0.1 mm 1 m/S 710 mmHg 75%
19:00 +24°C° 0.1 mm 0 m/S 710 mmHg 84%
20:00 +24°C° 0.9 mm 1 m/S 710 mmHg 87%
21:00 +21°C° 0.9 mm 2 m/S 711 mmHg 90%
22:00 +19°C° 0.9 mm 3 m/S 712 mmHg 94%
23:00 +18°C° 0.1 mm 3 m/S 713 mmHg 94%

23 Juni, Mittwoch

Zeit Temperatur Niederschläge Wind Luftdruck Luftfeuchtigkeit
00:00 +18°C° 0.1 mm 2 m/S 713 mmHg 95%
01:00 +18°C° 0.1 mm 1 m/S 714 mmHg 96%
02:00 +18°C° 0 mm 1 m/S 714 mmHg 95%
03:00 +18°C° 0 mm 1 m/S 714 mmHg 95%
04:00 +18°C° 0 mm 1 m/S 714 mmHg 94%
05:00 +19°C° 0 mm 1 m/S 714 mmHg 91%
06:00 +20°C° 0 mm 1 m/S 715 mmHg 88%
07:00 +19°C° 0 mm 0 m/S 715 mmHg 85%
08:00 +23°C° 0 mm 1 m/S 715 mmHg 76%
09:00 +24°C° 0 mm 1 m/S 715 mmHg 66%
10:00 +26°C° 0 mm 1 m/S 715 mmHg 57%
11:00 +27°C° 0 mm 2 m/S 715 mmHg 55%
12:00 +28°C° 0 mm 2 m/S 714 mmHg 53%
13:00 +29°C° 0 mm 2 m/S 714 mmHg 52%
14:00 +28°C° 0.1 mm 2 m/S 714 mmHg 55%
15:00 +28°C° 0.1 mm 2 m/S 714 mmHg 58%
16:00 +28°C° 0.1 mm 2 m/S 714 mmHg 61%
17:00 +26°C° 0.2 mm 2 m/S 714 mmHg 69%
18:00 +25°C° 0.2 mm 1 m/S 714 mmHg 76%
19:00 +24°C° 0.2 mm 1 m/S 714 mmHg 84%
20:00 +23°C° 0.3 mm 1 m/S 714 mmHg 86%
21:00 +21°C° 0.3 mm 1 m/S 714 mmHg 89%
22:00 +20°C° 0.3 mm 1 m/S 714 mmHg 91%
23:00 +20°C° 0.1 mm 1 m/S 714 mmHg 92%

24 Juni, Donnerstag

Zeit Temperatur Niederschläge Wind Luftdruck Luftfeuchtigkeit
00:00 +19°C° 0.1 mm 1 m/S 714 mmHg 92%
01:00 +19°C° 0.1 mm 1 m/S 714 mmHg 93%
02:00 +18°C° 0 mm 1 m/S 714 mmHg 93%
03:00 +16°C° 0 mm 1 m/S 714 mmHg 93%
04:00 +16°C° 0 mm 1 m/S 715 mmHg 94%
05:00 +18°C° 0 mm 1 m/S 715 mmHg 93%
06:00 +19°C° 0 mm 1 m/S 715 mmHg 91%
07:00 +20°C° 0 mm 1 m/S 716 mmHg 90%
08:00 +20°C° 0 mm 2 m/S 716 mmHg 81%
09:00 +23°C° 0 mm 2 m/S 716 mmHg 72%
10:00 +24°C° 0 mm 2 m/S 716 mmHg 63%
11:00 +24°C° 0.1 mm 2 m/S 716 mmHg 64%
12:00 +24°C° 0.1 mm 2 m/S 716 mmHg 64%
13:00 +25°C° 0.1 mm 2 m/S 716 mmHg 65%
14:00 +24°C° 0.2 mm 2 m/S 716 mmHg 68%
15:00 +23°C° 0.2 mm 2 m/S 716 mmHg 72%
16:00 +23°C° 0.2 mm 1 m/S 716 mmHg 76%
17:00 +22°C° 0.1 mm 1 m/S 716 mmHg 80%
18:00 +22°C° 0.1 mm 1 m/S 715 mmHg 83%
19:00 +19°C° 0.1 mm 0 m/S 715 mmHg 87%
20:00 +19°C° 0.1 mm 0 m/S 715 mmHg 89%
21:00 +18°C° 0.1 mm 0 m/S 715 mmHg 91%
22:00 +17°C° 0.1 mm 0 m/S 715 mmHg 94%
23:00 +16°C° 0.1 mm 0 m/S 715 mmHg 95%

25 Juni, Freitag

Zeit Temperatur Niederschläge Wind Luftdruck Luftfeuchtigkeit
00:00 +16°C° 0.1 mm 0 m/S 715 mmHg 96%
01:00 +15°C° 0.1 mm 0 m/S 715 mmHg 97%
02:00 +16°C° 0.7 mm 1 m/S 715 mmHg 98%
03:00 +16°C° 0.7 mm 1 m/S 715 mmHg 98%
04:00 +16°C° 0.7 mm 1 m/S 715 mmHg 99%
05:00 +16°C° 0.4 mm 1 m/S 715 mmHg 98%
06:00 +16°C° 0.4 mm 1 m/S 716 mmHg 98%
07:00 +16°C° 0.4 mm 1 m/S 716 mmHg 98%
08:00 +16°C° 0.6 mm 1 m/S 716 mmHg 98%
09:00 +16°C° 0.6 mm 1 m/S 716 mmHg 98%
10:00 +16°C° 0.6 mm 1 m/S 716 mmHg 98%
11:00 +15°C° 0.6 mm 2 m/S 716 mmHg 98%
12:00 +15°C° 0.6 mm 2 m/S 717 mmHg 97%
13:00 +15°C° 0.6 mm 2 m/S 717 mmHg 97%
14:00 +16°C° 0.1 mm 2 m/S 717 mmHg 94%
15:00 +16°C° 0.1 mm 1 m/S 717 mmHg 91%
16:00 +16°C° 0.1 mm 1 m/S 717 mmHg 88%
17:00 +16°C° 0.1 mm 1 m/S 717 mmHg 89%
18:00 +16°C° 0.1 mm 1 m/S 717 mmHg 91%
19:00 +15°C° 0.1 mm 1 m/S 717 mmHg 92%
20:00 +15°C° 0.1 mm 1 m/S 717 mmHg 94%
21:00 +15°C° 0.1 mm 1 m/S 717 mmHg 95%
22:00 +15°C° 0.1 mm 1 m/S 718 mmHg 96%
23:00 +14°C° 0 mm 1 m/S 718 mmHg 95%
Mehr zeigen

Wir brauchen deine Erlaubnis

Meteoprog und unser Service Anbieter werden persönliche Daten aufbewahren, so wie Cookies, Geräte Bezeichnung oder ähnliche Technologien von deinem Gerät und Prozess, so wie Persönliche Daten Inhalte und Werbungen, genauso wie social Media und den Verkehr zu analysieren.

  • Aufbewahrung und/oder Zugang zu deiner Geräte Informationen.

    Cookies, Geräte Bezeichnung oder andere Informationen, können aufbewahrt oder Zugang zu deinem Gerät erhalten, für den Grund, der oben angegeben wird.

  • Personalisierte Werbung und Inhalte, Messungen, Einblick in das Publikum und Produkt Entwicklung.

    Werbungen und Inhalte können personalisiert werden, basierend auf ein Profil. Mehr Daten können besser personalisierte Werbungen und Inhalte hinzufügen. Werbung und Inhalte können gezeigt und gemessen werden. Einblicke über das Publikum, welche die Werbung gesehen haben und den Inhalt, können abgeleitet werden. So wie Daten können genutzt werden, um es zu verbessern oder die Benutzer Erfahrung zu verbessern das System und die Software.

Wenn du “Ich stimme zu” klickst, erlaubst du uns, die Cookies zu benutzen die Geräte Bezeichnung, den Web oder ähnliche Technologien zu benutzen. Deine Settings, können in deinem Gerät bei deinem Browser geändert werden.

Für den bestimmten Zweck, berechtigten Interessen beruhen darauf, mehr als auf den Inhalt. Du kannst mehr darüber in unseren Privaten und Cookie Politik lesen.